TimeEDT,TemperatureF,Dew PointF,Humidity,Sea Level PressureIn,VisibilityMPH,Wind Direction,Wind SpeedMPH,Gust SpeedMPH,PrecipitationIn,Events,Conditions,WindDirDegrees,DateUTC
12:53 AM,73.9,71.1,91,30.00,10.0,Calm,Calm,-,N/A,,Overcast,0,2013-07-02 04:53:00
1:35 AM,73.4,71.6,94,30.01,10.0,Calm,Calm,-,N/A,,Overcast,0,2013-07-02 05:35:00
1:53 AM,73.9,71.1,91,30.01,10.0,SE,3.5,-,N/A,,Overcast,140,2013-07-02 05:53:00
2:53 AM,73.9,71.1,91,30.01,10.0,SSE,3.5,-,N/A,,Mostly Cloudy,160,2013-07-02 06:53:00
3:03 AM,73.4,71.6,94,30.01,10.0,South,3.5,-,N/A,,Mostly Cloudy,170,2013-07-02 07:03:00
3:11 AM,75.2,71.6,89,30.01,10.0,South,3.5,-,N/A,,Mostly Cloudy,170,2013-07-02 07:11:00
3:43 AM,75.2,71.6,89,30.02,7.0,South,6.9,-,0.01,Rain,Light Rain,190,2013-07-02 07:43:00
3:53 AM,73.9,71.1,91,30.01,6.0,SSW,6.9,-,0.02,Rain,Light Rain,200,2013-07-02 07:53:00
4:27 AM,73.4,71.6,94,30.03,10.0,SSW,6.9,-,0.00,,Mostly Cloudy,200,2013-07-02 08:27:00
4:34 AM,73.4,71.6,94,30.03,10.0,SSW,8.1,-,0.00,,Mostly Cloudy,200,2013-07-02 08:34:00
4:53 AM,73.9,71.1,91,30.02,10.0,South,8.1,-,0.00,,Scattered Clouds,190,2013-07-02 08:53:00
5:53 AM,73.9,70.0,87,30.03,10.0,South,8.1,-,N/A,,Mostly Cloudy,170,2013-07-02 09:53:00
6:39 AM,73.4,71.6,94,30.06,10.0,South,4.6,-,N/A,,Overcast,180,2013-07-02 10:39:00
6:53 AM,73.9,71.1,91,30.05,10.0,South,5.8,-,N/A,,Overcast,180,2013-07-02 10:53:00
7:07 AM,73.4,71.6,94,30.07,10.0,South,6.9,-,N/A,,Overcast,190,2013-07-02 11:07:00
7:27 AM,75.2,71.6,89,30.07,10.0,South,6.9,-,N/A,,Mostly Cloudy,170,2013-07-02 11:27:00
7:53 AM,75.9,71.1,85,30.07,10.0,South,5.8,-,N/A,,Mostly Cloudy,180,2013-07-02 11:53:00
8:53 AM,75.9,71.1,85,30.08,10.0,South,9.2,-,N/A,,Partly Cloudy,190,2013-07-02 12:53:00
10:22 AM,77.0,71.6,83,30.10,10.0,South,10.4,-,N/A,,Mostly Cloudy,180,2013-07-02 14:22:00
10:53 AM,77.0,71.1,82,30.10,10.0,South,12.7,-,N/A,,Mostly Cloudy,190,2013-07-02 14:53:00
11:19 AM,78.8,71.6,78,30.11,10.0,South,9.2,-,N/A,,Mostly Cloudy,190,2013-07-02 15:19:00
11:27 AM,78.8,71.6,78,30.11,10.0,SSW,12.7,18.4,N/A,,Mostly Cloudy,200,2013-07-02 15:27:00
11:53 AM,79.0,71.1,77,30.10,10.0,South,11.5,-,N/A,,Mostly Cloudy,190,2013-07-02 15:53:00
12:37 PM,80.6,69.8,70,30.11,10.0,South,8.1,-,N/A,,Mostly Cloudy,190,2013-07-02 16:37:00
12:53 PM,80.1,71.1,74,30.10,10.0,SSW,9.2,-,N/A,,Mostly Cloudy,200,2013-07-02 16:53:00
1:16 PM,80.6,71.6,74,30.10,10.0,SSW,9.2,18.4,N/A,,Scattered Clouds,200,2013-07-02 17:16:00
1:53 PM,81.0,72.0,74,30.09,10.0,South,9.2,-,N/A,,Scattered Clouds,180,2013-07-02 17:53:00
2:53 PM,82.0,71.1,69,30.08,10.0,South,13.8,-,N/A,,Partly Cloudy,190,2013-07-02 18:53:00
3:53 PM,81.0,71.1,72,30.08,10.0,South,9.2,-,N/A,,Scattered Clouds,190,2013-07-02 19:53:00
4:53 PM,79.0,73.0,82,30.09,10.0,South,8.1,-,0.01,Rain,Light Rain,190,2013-07-02 20:53:00
5:46 PM,78.8,71.6,78,30.11,10.0,SSW,13.8,20.7,0.00,,Mostly Cloudy,200,2013-07-02 21:46:00
5:53 PM,78.1,73.0,84,30.11,9.0,South,10.4,20.7,0.00,Rain,Light Rain,190,2013-07-02 21:53:00
6:53 PM,77.0,70.0,79,30.13,10.0,SSW,10.4,19.6,0.00,,Mostly Cloudy,200,2013-07-02 22:53:00
7:53 PM,75.9,69.1,79,30.13,10.0,South,6.9,-,0.00,,Mostly Cloudy,180,2013-07-02 23:53:00
8:53 PM,75.0,69.1,82,30.14,10.0,South,5.8,-,0.01,Rain,Light Rain,190,2013-07-03 00:53:00
9:01 PM,75.2,69.8,83,30.15,10.0,South,5.8,-,0.00,Rain,Light Rain,190,2013-07-03 01:01:00
9:14 PM,73.4,69.8,88,30.16,10.0,SSW,6.9,-,0.00,,Mostly Cloudy,200,2013-07-03 01:14:00
9:53 PM,73.9,69.1,85,30.15,10.0,South,6.9,-,0.00,,Mostly Cloudy,190,2013-07-03 01:53:00
10:53 PM,73.9,69.1,85,30.16,10.0,South,8.1,-,N/A,,Partly Cloudy,190,2013-07-03 02:53:00
11:53 PM,73.9,69.1,85,30.17,10.0,South,5.8,-,N/A,,Clear,190,2013-07-03 03:53:00